Location: *
(46.1866°S, 178.5290°W)
Time: 18:36:32
(UTC+00:00)

Cosmos 1437 Rocket - Pass Details

Date: 19 May 2021
Orbit: 501 x 565 km, 81.2° (Epoch: 17 June)

Event Time Altitude Azimuth Distance (km) Brightness Sun altitude
Rises 05:33:11 0° 192° (SSW) 2,646 6.3 -11.3°
Reaches altitude 10° 05:35:20 10° 192° (SSW) 1,752 5.3 -11.6°
Maximum altitude 05:39:11 86° 280° (W) 522 2.7 -12.3°
Drops below altitude 10° 05:43:00 10° 8° (N) 1,736 5.5 -12.9°
Sets 05:45:07 0° 8° (N) 2,620 6.4 -13.2°
